SCP
0 0 0 0 0 0 0 0 0 0 0 0 0 0 0 0 0 0 0 0 0 0 0 0 0 0 0 0 0 0 0 0 0 0 0 0 0 0 0 0 0 0 0
0 0 0 0 0 0 0 0 0 0 0 0 0 0 0 0 0 0 0 0 0 0 0 0 0 0 0 0 0 0 0 0 0 0 0 0 0 0 0 0 0 0 0
0 0 0 0 0 0 0 0 0 0 0 0 0 0 0 0 0 0 0 0 0 0 0 0 0 0 0 0 0 0 0 0 0 0 0 0 0 0 0 0 0 0 0
0 0 0 0 0 0 0 0 0 0 0 0 0 0 0 0 0 0 0 0 0 0 0 0 0 0 0 0 0 0 0 0 0 0 0 0 0 0 0 0 0 0 0
0 0 0 0 0 0 0 0 0 0 0 0 0 0 0 0 0 0 0 0 0 0 0 0 0 0 0 0 0 0 0 0 0 0 0 0 0 0 0 0 0 0 0
0 0 0 0 0 0 0 0 0 0 0 0 0 0 0 0 0 0 0 0 0 0 0 0 0 0 0 0 0 0 0 0 0 0 0 0 0 0 0 0 0 0 0
0 0 0 0 0 0 0 0 0 0 0 0 0 0 0 0 0 0 0 0 0 0 0 0 0 0 0 0 0 0 0 0 0 0 0 0 0 0 0 0 0 0 0
0 0 0 0 0 0 0 0 0 0 0 0 0 0 0 0 0 0 0 0 0 0 0 0 0 0 0 0 0 0 0 0 0 0 0 0 0 0 0 0 0 0 0
0 0 0 0 0 0 0 0 0 0 0 0 0 0 0 0 0 0 0 0 0 0 0 0 0 0 0 0 0 0 0 0 0 0 0 0 0 0 0 0 0 0 0
0 0 0 0 0 0 0 0 0 0 0 0 0 0 0 0 0 0 0 0 0 0 0 0 0 0 0 0 0 0 0 0 0 0 0 0 0 0 0 0 0 0 0
0 0 0 0 0 0 0 0 0 0 0 0 0 0 0 0 0 0 0 0 0 0 0 0 0 0 0 0 0 0 0 0 0 0 0 0 0 0 0 0 0 0 0
0 0 0 0 0 0 0 0 0 0 0 0 0 0 0 0 0 0 0 0 0 0 0 0 0 0 0 0 0 0 0 0 0 0 0 0 0 0 0 0 0 0 0
0 0 0 0 0 0 0 0 0 0 0 0 0 0 0 0 0 0 0 0 0 0 0 0 0 0 0 0 0 0 0 0 0 0 0 0 0 0 0 0 0 0 0
0 0 0 0 0 0 0 0 0 0 0 0 0 0 0 0 0 0 0 0 0 0 0 0 0 0 0 0 0 0 0 0 0 0 0 0 0 0 0 0 0 0 0
0 0 0 0 0 0 0 0 0 0 0 0 0 0 0 0 0 0 0 0 0 0 0 0 0 0 0 0 0 0 0 0 0 0 0 0 0 0 0 0 0 0 0
0 0 0 0 0 0 0 0 0 0 0 0 0 0 0 0 0 0 0 0 0 0 0 0 0 0 0 0 0 0 0 0 0 0 0 0 0 0 0 0 0 0 0
0 0 0 0 0 0 0 0 0 0 0 0 0 0 0 0 0 0 0 0 0 0 0 0 0 0 0 0 0 0 0 0 0 0 0 0 0 0 0 0 0 0 0
0 0 0 0 0 0 0 0 0 0 0 0 0 0 0 0 0 0 0 0 0 0 0 0 0 0 0 0 0 0 0 0 0 0 0 0 0 0 0 0 0 0 0
0 0 0 0 0 0 0 0 0 0 0 0 0 0 0 0 0 0 0 0 0 0 0 0 0 0 0 0 0 0 0 0 0 0 0 0 0 0 0 0 0 0 0
0 0 0 0 0 0 0 0 0 0 0 0 0 0 0 0 0 0 0 0 0 0 0 0 0 0 0 0 0 0 0 0 0 0 0 0 0 0 0 0 0 0 0
0 0 0 0 0 0 0 0 0 0 0 0 0 0 0 0 0 0 0 0 0 0 0 0 0 0 0 0 0 0 0 0 0 0 0 0 0 0 0 0 0 0 0
0 0 0 0 0 0 0 0 0 0 0 0 0 0 0 0 0 0 0 0 0 0 0 0 0 0 0 0 0 0 0 0 0 0 0 0 0 0 0 0 0 0 0
0 0 0 0 0 0 0 0 0 0 0 0 0 0 0 0 0 0 0 0 0 0 0 0 0 0 0 0 0 0 0 0 0 0 0 0 0 0 0 0 0 0 0
0 0 0 0 0 0 0 0 0 0 0 0 0 0 0 0 0 0 0 0 0 0 0 0 0 0 0 0 0 0 0 0 0 0 0 0 0 0 0 0 0 0 0
0 0 0 0 0 0 0 0 0 0 0 0 0 0 0 0 0 0 0 0 0 0 0 0 0 0 0 0 0 0 0 0 0 0 0 0 0 0 0 0 0 0 0
0 0 0 0 0 0 0 0 0 0 0 0 0 0 0 0 0 0 0 0 0 0 0 0 0 0 0 0 0 0 0 0 0 0 0 0 0 0 0 0 0 0 0
Wind_Speed
3 3 2 3 3 3 4 4 5 6 7 7 7 7 7 6 5 4 4 11 12 12 13 13 13 12 11 10 10 9 8 7 6 6 5 4 3 3 2 2 1 2 2
3 3 3 3 3 3 4 4 5 5 5 5 6 7 7 6 6 5 5 7 11 12 13 14 14 13 12 12 11 10 10 9 8 7 6 6 5 4 3 3 3 3 3
3 3 3 3 3 4 4 3 4 3 4 5 6 6 6 6 5 6 6 5 6 10 12 14 14 14 13 13 12 12 11 10 9 9 8 7 6 6 5 5 5 4 4
3 3 3 3 3 3 3 3 3 3 4 4 4 4 4 4 6 6 6 6 5 6 9 13 14 14 14 14 13 13 12 12 11 10 9 9 8 8 7 7 6 6 5
4 3 3 3 3 3 3 4 3 3 4 4 4 4 4 4 5 6 6 7 7 7 6 10 13 13 14 15 14 14 13 13 13 12 11 10 10 9 9 8 7 7 7
4 3 3 4 4 3 3 3 4 3 3 4 4 4 4 4 4 5 6 6 6 8 7 7 7 9 13 15 15 15 15 14 14 13 12 12 11 11 10 9 8 8 8
5 4 3 4 4 4 4 4 4 4 4 3 2 2 3 4 5 5 5 5 6 7 7 8 6 6 6 13 15 16 16 16 15 15 14 13 13 12 11 11 10 9 9
5 4 4 4 4 4 5 5 4 3 3 4 3 3 2 3 5 6 5 5 6 5 7 8 8 8 6 5 9 15 16 17 17 16 15 15 14 14 13 12 12 11 10
5 5 5 5 5 5 5 6 6 6 5 4 4 4 4 5 2 3 6 6 6 6 6 6 8 8 9 7 7 12 16 17 18 17 17 16 15 15 14 13 13 12 11
5 5 6 5 5 5 5 6 6 5 6 5 5 4 4 3 3 2 3 5 7 7 7 6 7 8 8 7 8 12 15 16 18 18 17 17 16 16 15 14 14 13 12
5 6 6 5 5 5 5 6 6 6 6 6 5 4 4 3 4 3 4 4 4 5 6 7 6 6 7 7 7 10 15 16 17 18 17 17 17 16 16 14 13 13 12
4 6 6 5 5 5 6 6 6 7 7 7 6 5 5 4 5 4 4 5 5 5 6 6 6 6 6 7 9 13 15 15 16 16 16 16 16 16 15 14 13 13 13
4 6 6 5 5 5 6 6 6 7 7 8 8 7 6 6 4 4 4 4 4 3 4 5 6 6 6 6 7 13 14 15 15 15 14 14 14 14 14 13 13 13 13
5 6 6 6 6 6 6 6 6 6 6 8 9 8 6 6 5 5 5 4 4 4 4 5 4 6 6 5 8 12 9 14 14 14 14 14 13 13 13 12 12 12 12
4 6 6 6 6 6 7 7 6 7 7 7 8 8 7 6 6 6 5 6 6 6 7 5 4 6 5 5 7 7 7 12 14 14 14 14 14 13 13 12 11 11 11
5 5 6 7 7 7 7 7 6 6 7 7 6 8 8 6 6 6 6 6 6 6 6 5 5 4 6 6 8 7 8 12 14 14 14 14 14 14 13 13 12 12 11
5 5 5 6 6 7 7 7 7 7 7 7 7 8 8 7 6 6 5 6 6 5 6 4 3 3 5 6 6 6 6 7 8 14 15 15 14 14 14 13 13 13 12
5 5 5 6 6 7 7 8 8 8 8 8 8 8 8 6 7 6 5 7 6 6 5 5 3 3 5 6 6 6 5 6 6 11 14 15 15 14 14 14 13 13 12
4 4 5 5 6 7 7 8 8 8 8 8 8 8 8 7 8 6 7 7 6 5 4 4 4 3 3 4 4 4 5 4 5 8 12 13 14 14 14 14 14 13 13
4 4 4 4 6 7 7 7 7 7 7 8 8 8 8 9 9 8 7 8 6 5 5 5 4 3 3 3 3 4 4 4 4 4 6 8 11 13 13 14 14 13 13
5 4 4 4 5 6 6 6 6 7 7 7 8 8 9 10 11 9 7 7 7 6 5 5 4 3 4 4 5 4 5 3 3 3 4 4 5 5 7 11 12 13 13
4 4 5 5 6 6 7 8 7 6 7 7 8 8 8 9 10 12 12 12 11 10 8 6 5 6 7 5 4 4 4 3 4 3 4 4 4 5 5 5 10 12 13
4 4 5 5 6 7 9 9 9 7 6 7 7 7 7 7 8 8 9 10 11 12 12 10 9 9 8 8 7 6 6 5 5 3 3 4 4 5 5 6 11 12 12
4 5 5 6 6 7 9 9 9 7 6 7 8 8 8 8 8 8 7 7 8 9 10 9 9 9 8 7 8 7 6 4 2 2 3 4 3 4 3 4 9 11 10
5 5 5 6 6 7 9 9 9 5 5 7 7 8 8 8 10 10 8 7 7 6 8 9 9 8 9 9 7 4 4 4 4 3 3 3 3 2 2 3 5 9 9
5 5 5 5 6 6 8 9 9 4 5 5 6 7 10 10 11 11 8 8 8 6 5 5 6 6 6 8 9 7 7 6 3 3 4 4 3 2 1 2 2 2 4
Wind_Direction
180 176 185 182 188 190 191 195 199 197 195 194 193 193 196 195 190 177 169 177 181 194 200 197 193 193 194 192 193 192 192 196 196 193 194 199 204 213 221 227 264 304 315
185 182 187 189 195 197 200 202 203 201 195 191 197 197 197 195 193 179 169 182 186 194 205 205 202 199 199 199 200 200 202 206 203 205 207 210 216 226 233 239 254 267 283
189 186 188 193 199 202 202 206 207 201 197 196 199 199 198 198 192 185 177 178 189 199 206 209 207 204 205 207 207 207 208 211 210 211 214 216 222 230 238 241 251 257 265
194 193 193 198 200 202 201 201 202 198 200 200 198 200 198 197 199 194 187 182 184 192 204 210 211 211 210 212 214 212 211 213 214 216 219 221 225 232 238 241 247 254 260
197 202 201 204 199 201 207 209 205 196 199 200 204 203 201 200 204 200 195 192 191 189 190 203 208 212 214 216 218 218 217 217 218 219 222 225 228 233 237 238 241 250 257
200 201 207 207 201 200 207 204 208 204 202 198 205 209 209 209 209 207 203 198 195 194 191 194 199 210 213 217 221 221 222 223 223 224 225 228 230 233 236 236 240 248 253
205 201 210 208 205 205 208 208 207 205 209 192 184 209 236 222 217 214 210 202 201 199 194 195 195 197 208 215 219 223 225 227 227 228 228 230 231 234 236 237 240 245 249
212 213 206 208 208 209 209 211 205 205 215 193 180 175 217 238 234 218 212 211 210 204 203 201 198 198 198 200 213 219 226 230 231 231 230 230 233 235 236 237 239 242 246
215 216 213 209 210 209 210 210 206 206 213 215 200 188 191 211 214 219 213 213 211 208 208 204 204 202 199 197 201 214 220 228 232 233 233 232 234 235 236 238 239 240 244
218 220 215 214 212 213 214 214 215 211 205 213 222 228 219 185 184 213 224 215 212 212 211 213 211 208 203 199 202 206 213 221 230 234 235 235 235 236 237 238 238 240 242
221 222 218 216 217 214 217 220 220 216 211 215 216 219 234 231 210 197 220 213 218 218 214 212 212 210 206 204 202 206 210 217 226 232 235 235 236 237 238 239 237 238 240
221 220 220 215 218 216 217 221 222 221 222 222 223 216 213 211 206 204 217 210 216 218 216 214 213 212 208 204 209 209 210 214 221 228 232 234 235 238 239 239 238 236 239
226 221 222 217 217 218 222 223 223 224 223 224 224 226 223 224 212 205 211 216 219 221 216 221 214 211 214 207 211 209 212 214 219 223 226 228 231 234 236 237 238 237 238
228 226 220 221 221 219 227 225 227 227 227 227 231 227 228 226 219 211 206 204 220 228 220 223 211 209 209 208 214 208 216 215 218 221 222 223 224 227 231 233 236 237 238
238 229 225 224 226 223 224 225 228 226 226 227 229 229 230 227 220 217 214 203 202 223 231 220 215 208 203 205 208 211 214 217 218 220 220 220 220 222 224 225 229 233 236
235 228 229 227 226 226 226 228 228 226 229 230 229 230 232 231 224 218 217 218 214 216 233 216 215 207 201 210 210 213 218 216 218 220 221 220 221 221 221 222 225 230 234
234 232 234 234 231 229 228 230 231 227 231 235 233 233 236 232 229 221 217 218 220 217 233 236 215 205 203 211 213 215 216 216 218 218 219 220 220 220 221 221 224 229 233
240 235 236 237 237 234 228 230 232 233 232 233 231 230 235 233 229 223 218 222 221 218 217 229 229 213 216 212 211 212 216 216 216 219 218 219 219 220 221 223 224 227 231
257 252 239 240 242 237 231 233 231 232 237 237 231 229 231 230 232 226 220 222 223 222 213 209 226 220 218 209 209 216 218 220 219 220 216 218 220 221 222 223 224 226 228
260 257 251 251 255 248 239 237 233 237 241 237 233 232 231 229 231 224 220 219 216 216 210 203 212 210 212 211 203 211 224 218 224 218 219 221 222 223 224 225 225 226 227
269 264 266 264 260 257 245 243 241 243 241 237 236 235 235 233 235 229 225 216 209 214 208 205 211 214 211 199 208 209 222 224 235 216 214 220 217 222 223 228 226 226 228
264 268 268 267 265 263 263 262 262 253 248 240 239 239 237 232 232 232 230 223 214 210 208 207 214 213 217 213 209 206 208 213 241 209 204 232 209 224 226 223 224 225 228
261 264 264 264 265 263 262 264 266 261 252 244 240 240 245 240 233 226 226 225 222 219 212 207 211 214 209 205 197 207 214 218 238 208 194 239 217 229 227 225 221 221 224
261 260 261 260 260 263 263 262 268 259 251 247 239 235 238 237 230 223 224 228 226 223 218 216 215 215 213 203 200 208 211 225 247 219 196 232 226 231 231 221 220 217 219
275 266 261 259 259 262 262 267 269 261 256 255 244 237 234 234 230 223 221 228 233 235 227 221 219 216 209 207 198 181 186 197 235 231 200 204 213 231 234 228 221 214 215
279 277 273 267 262 263 268 273 273 262 261 262 253 240 233 236 231 220 216 217 226 231 220 214 210 205 202 200 199 200 196 201 217 224 199 184 185 165 233 246 224 207 208